Retour au catalogue

COSMOS 1013

ActifMilitaireLEO
NORAD 10930·PAYLOAD·🇷🇺 Russia

Lancé Jun 7, 1978 depuis Plesetsk Cosmodrome

Loading…

Prochains Passages (prochaines 24 heures)

TLE

FraisSource: Space-Track

Époque: Sep 14, 2026, 14:55 UTC

1 10930U 78056A   26257.62201648 -.00000012  00000-0  27523-4 0  9997
2 10930  74.0306  13.9780 0048606 272.6702  98.3023 12.37819757181233

Suivez COSMOS 1013 en temps réel avec AllMySat

Download on the App Store